Location: Bakov nad Jizerou
(50.4784°N, 14.9394°E)
Time: 12:09:31
(UTC+00:00)

Cosmos 1703 - Visible Passes

Search period start: 23 October 2021 00:00
Search period end: 02 November 2021 00:00
Orbit: 523 x 538 km, 82.5° (Epoch: 22 October)

Date Brightness Start Highest point End Pass type
(mag) Time Alt. Az. Time Alt. Az. Time Alt. Az.
23 Oct 3.7 16:50:30 10° NNW 16:54:25 67° W 16:58:16 10° S visible
24 Oct 3.6 16:40:03 10° NNW 16:43:58 71° W 16:47:51 10° S visible
25 Oct 5.3 05:01:55 10° SSE 05:05:31 35° E 05:09:09 10° NNE visible
25 Oct 3.5 16:29:36 10° NNW 16:33:32 76° W 16:37:24 10° S visible
26 Oct 5.4 04:51:33 10° SSE 04:55:06 33° E 04:58:40 10° NNE visible
26 Oct 3.4 16:19:09 10° NNW 16:23:05 82° W 16:26:58 10° S visible
27 Oct 5.5 04:41:10 10° SSE 04:44:40 31° E 04:48:11 10° NNE visible
28 Oct 5.6 04:30:48 10° SSE 04:34:14 29° E 04:37:40 10° NNE visible
29 Oct 5.6 04:20:26 10° SSE 04:23:48 27° E 04:27:11 10° NNE visible
29 Oct 7.1 17:26:47 10° WNW 17:27:04 10° W 17:27:22 10° W visible
30 Oct 5.7 04:10:03 10° SSE 04:13:22 26° E 04:16:41 10° NNE visible
30 Oct 6.9 17:15:41 10° WNW 17:16:39 11° W 17:17:36 10° W visible
31 Oct 5.8 03:59:42 10° SE 04:02:56 24° E 04:06:09 10° NE visible
31 Oct 6.8 17:04:54 10° WNW 17:06:13 11° W 17:07:31 10° WSW visible
01 Nov 5.9 03:49:20 10° SE 03:52:29 23° E 03:55:37 10° NE visible
01 Nov 6.7 16:54:12 10° WNW 16:55:48 12° W 16:57:22 10° WSW visible
